Time,TemperatureF,DewpointF,PressureIn,WindDirection,WindDirectionDegrees,WindSpeedMPH,WindSpeedGustMPH,Humidity,HourlyPrecipIn,Conditions,Clouds,dailyrainin,SoftwareType,DateUTC
2013-04-12 00:00:00,70.5,57.7,29.64,South,184,4.0,7.0,64,0.00,,,0.00,Wunderground v.1.15,2013-04-12 04:00:00,
2013-04-12 00:01:00,70.5,57.7,29.64,SSW,201,4.0,7.0,64,0.00,,,0.00,Wunderground v.1.15,2013-04-12 04:01:00,
2013-04-12 00:03:00,70.5,57.7,29.64,SW,236,4.0,7.0,64,0.00,,,0.00,Wunderground v.1.15,2013-04-12 04:03:00,
2013-04-12 00:06:00,70.5,57.7,29.64,South,183,4.0,7.0,64,0.00,,,0.00,Wunderground v.1.15,2013-04-12 04:06:00,
2013-04-12 00:11:00,70.5,57.7,29.64,SSW,198,4.0,7.0,64,0.00,,,0.00,Wunderground v.1.15,2013-04-12 04:11:00,
2013-04-12 00:16:00,70.7,57.9,29.64,SW,220,5.0,11.0,64,0.00,,,0.00,Wunderground v.1.15,2013-04-12 04:16:00,
2013-04-12 00:21:00,70.7,57.9,29.63,South,182,6.0,7.0,64,0.00,,,0.00,Wunderground v.1.15,2013-04-12 04:21:00,
2013-04-12 00:27:00,70.8,58.4,29.63,South,182,6.0,10.0,65,0.00,,,0.00,Wunderground v.1.15,2013-04-12 04:27:00,
2013-04-12 00:33:00,70.9,58.5,29.64,South,191,6.0,9.0,65,0.00,,,0.00,Wunderground v.1.15,2013-04-12 04:33:00,
2013-04-12 00:39:00,70.9,58.5,29.64,SSW,212,6.0,6.0,65,0.00,,,0.00,Wunderground v.1.15,2013-04-12 04:39:00,
2013-04-12 00:45:00,71.0,58.6,29.64,SW,218,7.0,15.0,65,0.00,,,0.00,Wunderground v.1.15,2013-04-12 04:45:00,
2013-04-12 00:51:00,71.1,59.2,29.64,SSW,206,7.0,13.0,66,0.00,,,0.00,Wunderground v.1.15,2013-04-12 04:51:00,
2013-04-12 00:57:00,71.3,58.9,29.64,SSW,203,6.0,13.0,65,0.00,,,0.00,Wunderground v.1.15,2013-04-12 04:57:00,
2013-04-12 01:03:00,71.4,59.0,29.64,South,189,6.0,11.0,65,0.00,,,0.00,Wunderground v.1.15,2013-04-12 05:03:00,
2013-04-12 01:08:00,71.4,59.0,29.63,SSW,198,5.0,11.0,65,0.00,,,0.00,Wunderground v.1.15,2013-04-12 05:08:00,
2013-04-12 01:14:00,71.3,58.9,29.63,South,177,5.0,11.0,65,0.00,,,0.00,Wunderground v.1.15,2013-04-12 05:14:00,
2013-04-12 01:20:00,71.3,58.9,29.63,South,183,7.0,10.0,65,0.00,,,0.00,Wunderground v.1.15,2013-04-12 05:20:00,
2013-04-12 01:27:00,71.3,59.4,29.63,SSW,208,7.0,12.0,66,0.00,,,0.00,Wunderground v.1.15,2013-04-12 05:27:00,
2013-04-12 01:32:00,71.4,59.4,29.63,South,175,7.0,14.0,66,0.00,,,0.00,Wunderground v.1.15,2013-04-12 05:32:00,
2013-04-12 01:38:00,71.5,59.5,29.63,SSE,167,6.0,14.0,66,0.00,,,0.00,Wunderground v.1.15,2013-04-12 05:38:00,
2013-04-12 01:44:00,71.5,59.5,29.63,South,183,5.0,14.0,66,0.00,,,0.00,Wunderground v.1.15,2013-04-12 05:44:00,
2013-04-12 01:50:00,71.4,59.4,29.63,South,182,3.0,5.0,66,0.00,,,0.00,Wunderground v.1.15,2013-04-12 05:50:00,
2013-04-12 01:55:00,71.4,59.4,29.62,SSW,196,3.0,14.0,66,0.00,,,0.00,Wunderground v.1.15,2013-04-12 05:55:00,
2013-04-12 02:01:00,71.3,59.8,29.62,SSW,206,2.0,3.0,67,0.00,,,0.00,Wunderground v.1.15,2013-04-12 06:01:00,
2013-04-12 02:07:00,71.3,59.8,29.62,South,173,1.0,4.0,67,0.00,,,0.00,Wunderground v.1.15,2013-04-12 06:07:00,
2013-04-12 02:12:00,71.2,59.7,29.61,SSW,205,1.0,5.0,67,0.00,,,0.00,Wunderground v.1.15,2013-04-12 06:12:00,
2013-04-12 02:17:00,71.3,59.8,29.61,SSE,158,3.0,7.0,67,0.00,,,0.00,Wunderground v.1.15,2013-04-12 06:17:00,
2013-04-12 02:22:00,71.5,60.0,29.61,SW,215,5.0,9.0,67,0.00,,,0.00,Wunderground v.1.15,2013-04-12 06:22:00,
2013-04-12 02:27:00,71.5,60.0,29.61,South,176,5.0,9.0,67,0.00,,,0.00,Wunderground v.1.15,2013-04-12 06:27:00,
2013-04-12 02:32:00,71.5,60.0,29.60,South,182,4.0,17.0,67,0.00,,,0.00,Wunderground v.1.15,2013-04-12 06:32:00,
2013-04-12 02:37:00,71.5,60.4,29.59,SSW,202,4.0,17.0,68,0.00,,,0.00,Wunderground v.1.15,2013-04-12 06:37:00,
2013-04-12 02:44:00,71.3,60.6,29.59,SW,232,5.0,17.0,69,0.00,,,0.00,Wunderground v.1.15,2013-04-12 06:44:00,
2013-04-12 02:49:00,71.3,60.6,29.59,SW,219,6.0,6.0,69,0.00,,,0.00,Wunderground v.1.15,2013-04-12 06:49:00,
2013-04-12 02:55:00,71.2,60.5,29.59,SSE,165,5.0,17.0,69,0.00,,,0.00,Wunderground v.1.15,2013-04-12 06:55:00,
2013-04-12 03:00:00,71.0,61.1,29.59,South,184,5.0,10.0,71,0.00,,,0.00,Wunderground v.1.15,2013-04-12 07:00:00,
2013-04-12 03:06:00,70.6,61.5,29.58,South,178,3.0,10.0,73,0.00,,,0.00,Wunderground v.1.15,2013-04-12 07:06:00,
2013-04-12 03:11:00,70.1,61.4,29.58,SSE,163,2.0,5.0,74,0.00,,,0.00,Wunderground v.1.15,2013-04-12 07:11:00,